When you browse on this site, cookies collect data to enhance your experience and personalize the content and advertising you see.
Visit our Privacy Policy to learn more. By continuing to use the site, you agree to this use of cookies and data.
  • In Lithuania
  • List of Countries
  • For 7 days
  • Water Temperature
  • Weather Map
  • Weather Widgets
  • user-avatar
    Login

    Hourly Weather Szczerzbowo

    Today, 14 December, Saturday

    Time Temperature Precipitation Wind Pressure Humidity
    00:00 -1°C° 0 mm 6 mps 729 mmHg 85%
    01:00 0°C° 0 mm 5 mps 730 mmHg 85%
    02:00 -1°C° 0 mm 6 mps 729 mmHg 87%
    03:00 -1°C° 0 mm 6 mps 729 mmHg 88%
    04:00 -1°C° 0 mm 6 mps 729 mmHg 89%
    05:00 -1°C° 0 mm 6 mps 729 mmHg 88%
    06:00 -1°C° 0 mm 6 mps 729 mmHg 88%
    07:00 -1°C° 0 mm 6 mps 730 mmHg 87%
    08:00 -1°C° 0 mm 7 mps 730 mmHg 86%
    09:00 0°C° 0 mm 7 mps 730 mmHg 85%
    10:00 0°C° 0 mm 7 mps 730 mmHg 84%
    11:00 0°C° 0 mm 7 mps 730 mmHg 86%
    12:00 0°C° 0 mm 7 mps 730 mmHg 88%
    13:00 0°C° 0 mm 7 mps 730 mmHg 89%
    14:00 0°C° 0 mm 7 mps 730 mmHg 89%
    15:00 +1°C° 0 mm 6 mps 730 mmHg 89%
    16:00 +1°C° 0 mm 5 mps 730 mmHg 89%
    17:00 +1°C° 0 mm 5 mps 730 mmHg 89%
    18:00 +1°C° 0 mm 5 mps 730 mmHg 89%
    19:00 +1°C° 0 mm 5 mps 730 mmHg 89%
    20:00 +1°C° 0.4 mm 5 mps 730 mmHg 91%
    21:00 +1°C° 0.4 mm 5 mps 730 mmHg 94%
    22:00 +1°C° 0.4 mm 4 mps 729 mmHg 96%
    23:00 0°C° 0.5 mm 5 mps 730 mmHg 95%

    Tomorrow, 15 December, Sunday

    Time Temperature Precipitation Wind Pressure Humidity
    00:00 -1°C° 0.5 mm 6 mps 730 mmHg 95%
    01:00 -1°C° 0.5 mm 6 mps 731 mmHg 94%
    02:00 -1°C° 0.1 mm 6 mps 731 mmHg 91%
    03:00 -1°C° 0.1 mm 6 mps 732 mmHg 88%
    04:00 -1°C° 0.1 mm 6 mps 732 mmHg 85%
    05:00 -1°C° 0 mm 6 mps 733 mmHg 86%
    06:00 0°C° 0 mm 5 mps 734 mmHg 86%
    07:00 0°C° 0 mm 5 mps 734 mmHg 86%
    08:00 0°C° 0 mm 5 mps 735 mmHg 84%
    09:00 +1°C° 0 mm 5 mps 736 mmHg 83%
    10:00 +1°C° 0 mm 5 mps 736 mmHg 82%
    11:00 +1°C° 0 mm 6 mps 737 mmHg 80%
    12:00 +1°C° 0 mm 6 mps 737 mmHg 79%
    13:00 +1°C° 0 mm 6 mps 737 mmHg 77%
    14:00 +1°C° 0 mm 6 mps 737 mmHg 77%
    15:00 +1°C° 0 mm 6 mps 737 mmHg 77%
    16:00 +1°C° 0 mm 5 mps 736 mmHg 77%
    17:00 +1°C° 0.3 mm 5 mps 736 mmHg 80%
    18:00 +2°C° 0.3 mm 6 mps 736 mmHg 84%
    19:00 +2°C° 0.3 mm 6 mps 736 mmHg 87%
    20:00 +2°C° 0 mm 5 mps 737 mmHg 87%
    21:00 +2°C° 0 mm 5 mps 738 mmHg 87%
    22:00 +2°C° 0 mm 5 mps 739 mmHg 87%
    23:00 +2°C° 0 mm 5 mps 739 mmHg 84%

    Day after tomorrow, 16 December, Monday

    Time Temperature Precipitation Wind Pressure Humidity
    00:00 +1°C° 0 mm 5 mps 740 mmHg 82%
    01:00 +1°C° 0 mm 6 mps 741 mmHg 79%
    02:00 +1°C° 0 mm 5 mps 741 mmHg 80%
    03:00 +1°C° 0 mm 5 mps 741 mmHg 81%
    04:00 +1°C° 0 mm 5 mps 742 mmHg 82%
    05:00 +1°C° 0 mm 5 mps 742 mmHg 83%
    06:00 0°C° 0 mm 5 mps 743 mmHg 85%
    07:00 0°C° 0 mm 4 mps 743 mmHg 87%
    08:00 +1°C° 0 mm 4 mps 744 mmHg 86%
    09:00 +1°C° 0 mm 4 mps 744 mmHg 86%
    10:00 +1°C° 0 mm 4 mps 745 mmHg 85%
    11:00 +3°C° 0 mm 4 mps 745 mmHg 84%
    12:00 +3°C° 0 mm 3 mps 745 mmHg 83%
    13:00 +4°C° 0 mm 3 mps 745 mmHg 82%
    14:00 +3°C° 0 mm 3 mps 745 mmHg 85%
    15:00 +3°C° 0 mm 3 mps 745 mmHg 88%
    16:00 +3°C° 0 mm 4 mps 745 mmHg 91%
    17:00 +3°C° 0 mm 4 mps 745 mmHg 92%
    18:00 +4°C° 0 mm 4 mps 745 mmHg 92%
    19:00 +4°C° 0 mm 4 mps 745 mmHg 93%
    20:00 +4°C° 0 mm 4 mps 745 mmHg 91%
    21:00 +4°C° 0 mm 4 mps 745 mmHg 89%
    22:00 +4°C° 0 mm 4 mps 745 mmHg 88%
    23:00 +4°C° 0 mm 4 mps 744 mmHg 88%

    17 December, Tuesday

    Time Temperature Precipitation Wind Pressure Humidity
    00:00 +4°C° 0 mm 4 mps 744 mmHg 87%
    01:00 +4°C° 0 mm 4 mps 744 mmHg 87%
    02:00 +4°C° 0 mm 4 mps 744 mmHg 88%
    03:00 +4°C° 0 mm 4 mps 743 mmHg 89%
    04:00 +4°C° 0 mm 4 mps 743 mmHg 90%
    05:00 +4°C° 0 mm 4 mps 743 mmHg 90%
    06:00 +4°C° 0 mm 4 mps 743 mmHg 90%
    07:00 +4°C° 0 mm 4 mps 742 mmHg 89%
    08:00 +4°C° 0 mm 4 mps 742 mmHg 88%
    09:00 +4°C° 0 mm 4 mps 743 mmHg 86%
    10:00 +5°C° 0 mm 5 mps 743 mmHg 85%
    11:00 +5°C° 0 mm 4 mps 743 mmHg 84%
    12:00 +6°C° 0 mm 4 mps 742 mmHg 84%
    13:00 +6°C° 0 mm 4 mps 742 mmHg 83%
    14:00 +5°C° 0 mm 3 mps 742 mmHg 86%
    15:00 +5°C° 0 mm 3 mps 742 mmHg 89%
    16:00 +4°C° 0 mm 3 mps 742 mmHg 91%
    17:00 +4°C° 0 mm 3 mps 742 mmHg 91%
    18:00 +5°C° 0 mm 4 mps 743 mmHg 91%
    19:00 +5°C° 0 mm 4 mps 743 mmHg 91%
    20:00 +5°C° 0 mm 4 mps 743 mmHg 91%
    21:00 +5°C° 0 mm 4 mps 743 mmHg 90%
    22:00 +5°C° 0 mm 4 mps 743 mmHg 90%
    23:00 +5°C° 0 mm 3 mps 743 mmHg 91%

    18 December, Wednesday

    Time Temperature Precipitation Wind Pressure Humidity
    00:00 +4°C° 0 mm 3 mps 743 mmHg 91%
    01:00 +4°C° 0 mm 3 mps 743 mmHg 92%
    02:00 +4°C° 0 mm 3 mps 743 mmHg 92%
    03:00 +4°C° 0 mm 3 mps 743 mmHg 92%
    04:00 +4°C° 0 mm 3 mps 743 mmHg 92%
    05:00 +4°C° 0 mm 3 mps 743 mmHg 92%
    06:00 +3°C° 0 mm 3 mps 743 mmHg 92%
    07:00 +3°C° 0 mm 3 mps 743 mmHg 92%
    08:00 +4°C° 0 mm 3 mps 743 mmHg 89%
    09:00 +4°C° 0 mm 3 mps 743 mmHg 86%
    10:00 +5°C° 0 mm 3 mps 744 mmHg 83%
    11:00 +6°C° 0 mm 4 mps 743 mmHg 81%
    12:00 +6°C° 0 mm 4 mps 743 mmHg 78%
    13:00 +7°C° 0 mm 4 mps 743 mmHg 75%
    14:00 +6°C° 0 mm 4 mps 743 mmHg 78%
    15:00 +6°C° 0 mm 4 mps 744 mmHg 81%
    16:00 +5°C° 0 mm 4 mps 744 mmHg 84%
    17:00 +5°C° 0 mm 4 mps 744 mmHg 86%
    18:00 +4°C° 0 mm 4 mps 745 mmHg 88%
    19:00 +4°C° 0 mm 4 mps 745 mmHg 89%
    20:00 +4°C° 0 mm 4 mps 746 mmHg 89%
    21:00 +4°C° 0 mm 3 mps 746 mmHg 88%
    22:00 +3°C° 0 mm 3 mps 747 mmHg 88%
    23:00 +3°C° 0 mm 3 mps 747 mmHg 90%

    19 December, Thursday

    Time Temperature Precipitation Wind Pressure Humidity
    00:00 +3°C° 0 mm 2 mps 747 mmHg 92%
    01:00 +2°C° 0 mm 2 mps 747 mmHg 93%
    02:00 +2°C° 0 mm 2 mps 748 mmHg 94%
    03:00 +3°C° 0 mm 1 mps 748 mmHg 94%
    04:00 +3°C° 0 mm 1 mps 748 mmHg 94%
    05:00 +3°C° 0 mm 1 mps 748 mmHg 94%
    06:00 +3°C° 0 mm 1 mps 748 mmHg 95%
    07:00 +3°C° 0 mm 1 mps 749 mmHg 95%
    08:00 +3°C° 0 mm 1 mps 749 mmHg 94%
    09:00 +3°C° 0 mm 1 mps 749 mmHg 93%
    10:00 +2°C° 0 mm 0 mps 750 mmHg 93%
    11:00 +3°C° 0 mm 0 mps 749 mmHg 91%
    12:00 +3°C° 0 mm 0 mps 749 mmHg 90%
    13:00 +3°C° 0 mm 0 mps 749 mmHg 88%
    14:00 +4°C° 0 mm 1 mps 749 mmHg 90%
    15:00 +3°C° 0 mm 1 mps 749 mmHg 91%
    16:00 +2°C° 0 mm 1 mps 749 mmHg 92%
    17:00 +1°C° 0 mm 2 mps 749 mmHg 92%
    18:00 +1°C° 0 mm 2 mps 749 mmHg 92%
    19:00 +1°C° 0 mm 2 mps 749 mmHg 92%
    20:00 0°C° 0 mm 3 mps 749 mmHg 92%
    21:00 0°C° 0 mm 3 mps 749 mmHg 92%
    22:00 0°C° 0 mm 3 mps 749 mmHg 92%
    23:00 -1°C° 0 mm 3 mps 748 mmHg 92%
    Show more